Time,TemperatureF,DewpointF,PressureIn,WindDirection,WindDirectionDegrees,WindSpeedMPH,WindSpeedGustMPH,Humidity,HourlyPrecipIn,Conditions,Clouds,dailyrainin,SoftwareType,DateUTC
2013-12-21 00:00:00,47.4,26.5,29.98,ESE,120,1.0,7.0,44,0.00,,,0.00,Weather View 32 v70,2013-12-21 08:00:00,
2013-12-21 00:10:00,46.8,27.1,29.97,ESE,112,0.0,6.0,46,0.00,,,0.00,Weather View 32 v70,2013-12-21 08:10:00,
2013-12-21 00:15:00,46.6,27.9,29.97,ESE,112,0.0,6.0,48,0.00,,,0.00,Weather View 32 v70,2013-12-21 08:15:00,
2013-12-21 00:20:00,46.3,27.7,29.97,ESE,112,0.0,4.0,48,0.00,,,0.00,Weather View 32 v70,2013-12-21 08:20:00,
2013-12-21 00:25:00,46.1,28.0,29.97,ESE,112,0.0,4.0,49,0.00,,,0.00,Weather View 32 v70,2013-12-21 08:25:00,
2013-12-21 00:30:00,45.8,28.2,29.97,ESE,112,0.0,4.0,50,0.00,,,0.00,Weather View 32 v70,2013-12-21 08:30:00,
2013-12-21 00:35:00,45.6,28.5,29.97,ESE,112,0.0,4.0,51,0.00,,,0.00,Weather View 32 v70,2013-12-21 08:35:00,
2013-12-21 00:40:00,45.3,28.2,29.97,ESE,112,0.0,4.0,51,0.00,,,0.00,Weather View 32 v70,2013-12-21 08:40:00,
2013-12-21 00:45:00,45.1,28.5,29.97,ESE,112,0.0,4.0,52,0.00,,,0.00,Weather View 32 v70,2013-12-21 08:45:00,
2013-12-21 00:50:00,44.9,28.8,29.97,ESE,112,0.0,4.0,53,0.00,,,0.00,Weather View 32 v70,2013-12-21 08:50:00,
2013-12-21 00:55:00,44.6,29.0,29.97,ESE,112,0.0,4.0,54,0.00,,,0.00,Weather View 32 v70,2013-12-21 08:55:00,
2013-12-21 01:00:00,44.4,28.8,29.97,ESE,112,0.0,4.0,54,0.00,,,0.00,Weather View 32 v70,2013-12-21 09:00:00,
2013-12-21 01:05:00,44.2,29.0,29.97,ESE,112,0.0,4.0,55,0.00,,,0.00,Weather View 32 v70,2013-12-21 09:05:00,
2013-12-21 01:10:00,44.2,29.0,29.97,ESE,111,0.0,2.0,55,0.00,,,0.00,Weather View 32 v70,2013-12-21 09:10:00,
2013-12-21 01:15:00,44.1,28.9,29.97,ESE,111,0.0,1.0,55,0.00,,,0.00,Weather View 32 v70,2013-12-21 09:15:00,
2013-12-21 01:20:00,44.0,29.3,29.97,ESE,111,0.0,1.0,56,0.00,,,0.00,Weather View 32 v70,2013-12-21 09:20:00,
2013-12-21 01:25:00,43.8,29.5,29.98,ESE,111,0.0,1.0,57,0.00,,,0.00,Weather View 32 v70,2013-12-21 09:25:00,
2013-12-21 01:30:00,43.6,28.9,29.97,ESE,111,0.0,1.0,56,0.00,,,0.00,Weather View 32 v70,2013-12-21 09:30:00,
2013-12-21 01:35:00,43.3,28.6,29.97,ESE,111,0.0,1.0,56,0.00,,,0.00,Weather View 32 v70,2013-12-21 09:35:00,
2013-12-21 01:45:00,43.1,28.9,29.98,ESE,111,1.0,1.0,57,0.00,,,0.00,Weather View 32 v70,2013-12-21 09:45:00,
2013-12-21 01:50:00,43.2,29.0,29.98,ESE,111,0.0,1.0,57,0.00,,,0.00,Weather View 32 v70,2013-12-21 09:50:00,
2013-12-21 01:55:00,43.2,29.0,29.97,ESE,111,0.0,1.0,57,0.00,,,0.00,Weather View 32 v70,2013-12-21 09:55:00,
2013-12-21 02:00:00,43.3,29.5,29.97,ESE,111,0.0,2.0,58,0.00,,,0.00,Weather View 32 v70,2013-12-21 10:00:00,
2013-12-21 02:05:00,43.3,29.5,29.97,ESE,111,0.0,2.0,58,0.00,,,0.00,Weather View 32 v70,2013-12-21 10:05:00,
2013-12-21 02:10:00,43.3,29.5,29.97,ESE,111,0.0,2.0,58,0.00,,,0.00,Weather View 32 v70,2013-12-21 10:10:00,
2013-12-21 02:15:00,43.2,29.8,29.97,ESE,111,0.0,2.0,59,0.00,,,0.00,Weather View 32 v70,2013-12-21 10:15:00,
2013-12-21 02:20:00,43.2,29.8,29.98,ESE,111,0.0,4.0,59,0.00,,,0.00,Weather View 32 v70,2013-12-21 10:20:00,
2013-12-21 02:30:00,43.2,29.8,29.98,ESE,111,1.0,4.0,59,0.00,,,0.00,Weather View 32 v70,2013-12-21 10:30:00,
2013-12-21 02:35:00,43.1,29.7,29.98,ESE,111,0.0,4.0,59,0.00,,,0.00,Weather View 32 v70,2013-12-21 10:35:00,
2013-12-21 02:40:00,43.0,29.6,29.98,ESE,111,0.0,4.0,59,0.00,,,0.00,Weather View 32 v70,2013-12-21 10:40:00,
2013-12-21 02:45:00,42.9,29.5,29.99,ESE,111,0.0,4.0,59,0.00,,,0.00,Weather View 32 v70,2013-12-21 10:45:00,
2013-12-21 02:55:00,42.6,29.7,29.99,ESE,111,0.0,4.0,60,0.00,,,0.00,Weather View 32 v70,2013-12-21 10:55:00,
2013-12-21 03:00:00,42.4,29.5,29.99,ESE,111,0.0,4.0,60,0.00,,,0.00,Weather View 32 v70,2013-12-21 11:00:00,
2013-12-21 03:05:00,42.2,29.7,29.99,ESE,111,0.0,4.0,61,0.00,,,0.00,Weather View 32 v70,2013-12-21 11:05:00,
2013-12-21 03:15:00,41.7,29.6,29.99,ESE,111,0.0,4.0,62,0.00,,,0.00,Weather View 32 v70,2013-12-21 11:15:00,
2013-12-21 03:20:00,41.5,29.4,29.99,ESE,111,0.0,2.0,62,0.00,,,0.00,Weather View 32 v70,2013-12-21 11:20:00,
2013-12-21 03:30:00,41.2,29.5,29.99,ESE,111,0.0,1.0,63,0.00,,,0.00,Weather View 32 v70,2013-12-21 11:30:00,
2013-12-21 03:35:00,40.9,29.6,29.99,ESE,111,0.0,1.0,64,0.00,,,0.00,Weather View 32 v70,2013-12-21 11:35:00,
2013-12-21 03:40:00,40.7,29.8,30.00,ESE,111,0.0,1.0,65,0.00,,,0.00,Weather View 32 v70,2013-12-21 11:40:00,
2013-12-21 03:45:00,40.6,29.7,30.00,ESE,111,0.0,1.0,65,0.00,,,0.00,Weather View 32 v70,2013-12-21 11:45:00,
2013-12-21 03:50:00,40.4,29.9,30.00,ESE,111,0.0,1.0,66,0.00,,,0.00,Weather View 32 v70,2013-12-21 11:50:00,
2013-12-21 03:55:00,40.2,29.7,30.00,ESE,111,0.0,1.0,66,0.00,,,0.00,Weather View 32 v70,2013-12-21 11:55:00,
2013-12-21 04:00:00,40.0,29.5,30.00,ESE,111,0.0,1.0,66,0.00,,,0.00,Weather View 32 v70,2013-12-21 12:00:00,
2013-12-21 04:05:00,39.7,29.3,30.00,ESE,111,0.0,1.0,66,0.00,,,0.00,Weather View 32 v70,2013-12-21 12:05:00,
2013-12-21 04:10:00,39.5,29.1,30.00,ESE,111,0.0,1.0,66,0.00,,,0.00,Weather View 32 v70,2013-12-21 12:10:00,
2013-12-21 04:15:00,39.3,28.9,30.00,ESE,111,0.0,1.0,66,0.00,,,0.00,Weather View 32 v70,2013-12-21 12:15:00,
2013-12-21 04:20:00,39.1,29.1,30.01,ESE,111,0.0,1.0,67,0.00,,,0.00,Weather View 32 v70,2013-12-21 12:20:00,
2013-12-21 04:25:00,38.9,28.9,30.00,ESE,111,0.0,1.0,67,0.00,,,0.00,Weather View 32 v70,2013-12-21 12:25:00,
2013-12-21 04:30:00,38.8,29.1,30.01,ESE,111,0.0,1.0,68,0.00,,,0.00,Weather View 32 v70,2013-12-21 12:30:00,
2013-12-21 04:35:00,38.7,29.0,30.01,ESE,111,0.0,1.0,68,0.00,,,0.00,Weather View 32 v70,2013-12-21 12:35:00,
2013-12-21 04:45:00,38.5,29.2,30.01,ESE,111,0.0,1.0,69,0.00,,,0.00,Weather View 32 v70,2013-12-21 12:45:00,
2013-12-21 04:55:00,38.3,29.4,30.01,ESE,111,0.0,0.0,70,0.00,,,0.00,Weather View 32 v70,2013-12-21 12:55:00,
2013-12-21 05:00:00,38.2,29.3,30.01,ESE,111,0.0,0.0,70,0.00,,,0.00,Weather View 32 v70,2013-12-21 13:00:00,
2013-12-21 05:05:00,38.1,29.2,30.01,ESE,111,0.0,1.0,70,0.00,,,0.00,Weather View 32 v70,2013-12-21 13:05:00,
2013-12-21 05:10:00,38.0,29.1,30.01,ESE,111,0.0,1.0,70,0.00,,,0.00,Weather View 32 v70,2013-12-21 13:10:00,
2013-12-21 05:15:00,38.0,29.4,30.01,ESE,111,0.0,1.0,71,0.00,,,0.00,Weather View 32 v70,2013-12-21 13:15:00,
2013-12-21 05:20:00,38.0,29.4,30.02,ESE,111,0.0,1.0,71,0.00,,,0.00,Weather View 32 v70,2013-12-21 13:20:00,
2013-12-21 05:25:00,38.0,29.4,30.02,ESE,111,0.0,1.0,71,0.00,,,0.00,Weather View 32 v70,2013-12-21 13:25:00,
2013-12-21 05:30:00,38.0,29.4,30.02,ESE,111,0.0,1.0,71,0.00,,,0.00,Weather View 32 v70,2013-12-21 13:30:00,
2013-12-21 05:35:00,38.0,29.4,30.02,ESE,111,0.0,1.0,71,0.00,,,0.00,Weather View 32 v70,2013-12-21 13:35:00,
2013-12-21 05:40:00,38.1,29.5,30.02,ESE,111,0.0,1.0,71,0.00,,,0.00,Weather View 32 v70,2013-12-21 13:40:00,
2013-12-21 05:45:00,38.0,29.4,30.02,ESE,111,0.0,1.0,71,0.00,,,0.00,Weather View 32 v70,2013-12-21 13:45:00,
2013-12-21 05:50:00,37.9,29.3,30.03,ESE,111,0.0,1.0,71,0.00,,,0.00,Weather View 32 v70,2013-12-21 13:50:00,
2013-12-21 05:55:00,37.8,29.2,30.03,ESE,111,0.0,1.0,71,0.00,,,0.00,Weather View 32 v70,2013-12-21 13:55:00,
2013-12-21 06:00:00,37.8,29.6,30.03,ESE,111,0.0,1.0,72,0.00,,,0.00,Weather View 32 v70,2013-12-21 14:00:00,
2013-12-21 06:05:00,37.8,29.6,30.03,ESE,111,0.0,2.0,72,0.00,,,0.00,Weather View 32 v70,2013-12-21 14:05:00,
2013-12-21 06:10:00,37.9,29.7,30.03,ESE,111,0.0,2.0,72,0.00,,,0.00,Weather View 32 v70,2013-12-21 14:10:00,
2013-12-21 06:15:00,37.9,29.7,30.03,ESE,111,0.0,2.0,72,0.00,,,0.00,Weather View 32 v70,2013-12-21 14:15:00,
2013-12-21 06:20:00,37.9,29.3,30.03,ESE,111,0.0,2.0,71,0.00,,,0.00,Weather View 32 v70,2013-12-21 14:20:00,
2013-12-21 06:25:00,37.8,29.6,30.03,ESE,111,0.0,2.0,72,0.00,,,0.00,Weather View 32 v70,2013-12-21 14:25:00,
2013-12-21 06:30:00,37.7,29.5,30.03,ESE,111,0.0,2.0,72,0.00,,,0.00,Weather View 32 v70,2013-12-21 14:30:00,
2013-12-21 06:35:00,37.7,29.5,30.03,ESE,111,0.0,2.0,72,0.00,,,0.00,Weather View 32 v70,2013-12-21 14:35:00,
2013-12-21 06:40:00,37.7,29.5,30.03,ESE,111,0.0,2.0,72,0.00,,,0.00,Weather View 32 v70,2013-12-21 14:40:00,
2013-12-21 06:45:00,37.7,29.8,30.04,ESE,111,0.0,2.0,73,0.00,,,0.00,Weather View 32 v70,2013-12-21 14:45:00,
2013-12-21 06:50:00,37.6,29.4,30.03,ESE,111,0.0,2.0,72,0.00,,,0.00,Weather View 32 v70,2013-12-21 14:50:00,
2013-12-21 06:55:00,37.5,29.3,30.04,ESE,111,0.0,2.0,72,0.00,,,0.00,Weather View 32 v70,2013-12-21 14:55:00,
2013-12-21 07:00:00,37.4,29.2,30.04,ESE,111,0.0,2.0,72,0.00,,,0.00,Weather View 32 v70,2013-12-21 15:00:00,
2013-12-21 07:05:00,37.3,29.4,30.04,ESE,111,0.0,1.0,73,0.00,,,0.00,Weather View 32 v70,2013-12-21 15:05:00,
2013-12-21 07:10:00,37.2,29.3,30.04,ESE,111,0.0,1.0,73,0.00,,,0.00,Weather View 32 v70,2013-12-21 15:10:00,
2013-12-21 07:15:00,37.1,29.2,30.03,ESE,111,0.0,1.0,73,0.00,,,0.00,Weather View 32 v70,2013-12-21 15:15:00,
2013-12-21 07:20:00,37.0,29.1,30.04,ESE,111,0.0,1.0,73,0.00,,,0.00,Weather View 32 v70,2013-12-21 15:20:00,
2013-12-21 07:25:00,36.9,29.4,30.04,ESE,111,0.0,1.0,74,0.00,,,0.00,Weather View 32 v70,2013-12-21 15:25:00,
2013-12-21 07:30:00,36.9,29.4,30.05,ESE,111,0.0,1.0,74,0.00,,,0.00,Weather View 32 v70,2013-12-21 15:30:00,
2013-12-21 07:35:00,36.8,29.3,30.05,ESE,111,0.0,1.0,74,0.00,,,0.00,Weather View 32 v70,2013-12-21 15:35:00,
2013-12-21 07:40:00,36.8,29.3,30.05,ESE,111,0.0,1.0,74,0.00,,,0.00,Weather View 32 v70,2013-12-21 15:40:00,
2013-12-21 07:45:00,36.7,29.5,30.05,ESE,111,0.0,1.0,75,0.00,,,0.00,Weather View 32 v70,2013-12-21 15:45:00,
2013-12-21 07:50:00,36.7,29.5,30.05,ESE,111,0.0,1.0,75,0.00,,,0.00,Weather View 32 v70,2013-12-21 15:50:00,
2013-12-21 08:00:00,37.0,29.8,30.05,ESE,111,0.0,1.0,75,0.00,,,0.00,Weather View 32 v70,2013-12-21 16:00:00,
2013-12-21 08:05:00,37.5,30.3,30.05,ESE,111,0.0,0.0,75,0.00,,,0.00,Weather View 32 v70,2013-12-21 16:05:00,
2013-12-21 08:10:00,38.2,30.6,30.05,ESE,111,0.0,0.0,74,0.00,,,0.00,Weather View 32 v70,2013-12-21 16:10:00,
2013-12-21 08:15:00,38.9,31.0,30.06,ESE,111,0.0,1.0,73,0.00,,,0.00,Weather View 32 v70,2013-12-21 16:15:00,
2013-12-21 08:20:00,39.4,31.1,30.05,ESE,111,0.0,1.0,72,0.00,,,0.00,Weather View 32 v70,2013-12-21 16:20:00,
2013-12-21 08:25:00,39.6,31.3,30.05,ESE,111,0.0,1.0,72,0.00,,,0.00,Weather View 32 v70,2013-12-21 16:25:00,
2013-12-21 08:30:00,40.0,31.7,30.06,ESE,111,0.0,1.0,72,0.00,,,0.00,Weather View 32 v70,2013-12-21 16:30:00,
2013-12-21 08:35:00,40.3,31.6,30.06,ESE,111,0.0,2.0,71,0.00,,,0.00,Weather View 32 v70,2013-12-21 16:35:00,
2013-12-21 08:40:00,40.4,31.7,30.06,ESE,111,0.0,2.0,71,0.00,,,0.00,Weather View 32 v70,2013-12-21 16:40:00,
2013-12-21 08:45:00,40.6,31.9,30.06,ESE,111,0.0,2.0,71,0.00,,,0.00,Weather View 32 v70,2013-12-21 16:45:00,
2013-12-21 08:50:00,40.9,32.2,30.07,ESE,111,0.0,2.0,71,0.00,,,0.00,Weather View 32 v70,2013-12-21 16:50:00,
2013-12-21 09:00:00,41.7,32.6,30.07,ESE,111,0.0,2.0,70,0.00,,,0.00,Weather View 32 v70,2013-12-21 17:00:00,
2013-12-21 09:05:00,42.2,32.7,30.07,ESE,111,0.0,2.0,69,0.00,,,0.00,Weather View 32 v70,2013-12-21 17:05:00,
2013-12-21 09:10:00,42.6,32.8,30.07,ESE,111,0.0,2.0,68,0.00,,,0.00,Weather View 32 v70,2013-12-21 17:10:00,
2013-12-21 09:15:00,43.1,33.2,30.07,ESE,111,0.0,2.0,68,0.00,,,0.00,Weather View 32 v70,2013-12-21 17:15:00,
2013-12-21 09:25:00,44.2,33.5,30.07,ESE,111,0.0,2.0,66,0.00,,,0.00,Weather View 32 v70,2013-12-21 17:25:00,
2013-12-21 09:30:00,44.8,33.7,30.07,ESE,111,0.0,2.0,65,0.00,,,0.00,Weather View 32 v70,2013-12-21 17:30:00,
2013-12-21 09:35:00,45.3,34.2,30.07,ESE,111,0.0,4.0,65,0.00,,,0.00,Weather View 32 v70,2013-12-21 17:35:00,
2013-12-21 09:45:00,46.2,34.7,30.07,ESE,111,0.0,4.0,64,0.00,,,0.00,Weather View 32 v70,2013-12-21 17:45:00,
2013-12-21 09:50:00,46.7,34.8,30.07,ESE,111,2.0,5.0,63,0.00,,,0.00,Weather View 32 v70,2013-12-21 17:50:00,
2013-12-21 09:55:00,47.2,34.8,30.07,ESE,111,2.0,5.0,62,0.00,,,0.00,Weather View 32 v70,2013-12-21 17:55:00,
2013-12-21 10:00:00,47.8,35.0,30.07,ESE,111,0.0,5.0,61,0.00,,,0.00,Weather View 32 v70,2013-12-21 18:00:00,
2013-12-21 10:05:00,48.4,34.7,30.07,ESE,111,0.0,5.0,59,0.00,,,0.00,Weather View 32 v70,2013-12-21 18:05:00,
2013-12-21 10:10:00,49.0,34.4,30.07,ESE,111,0.0,5.0,57,0.00,,,0.00,Weather View 32 v70,2013-12-21 18:10:00,
2013-12-21 10:15:00,49.6,34.5,30.07,ESE,112,2.0,5.0,56,0.00,,,0.00,Weather View 32 v70,2013-12-21 18:15:00,
2013-12-21 10:20:00,49.9,33.9,30.06,ESE,112,0.0,5.0,54,0.00,,,0.00,Weather View 32 v70,2013-12-21 18:20:00,
2013-12-21 10:25:00,50.3,33.8,30.06,ESE,112,0.0,5.0,53,0.00,,,0.00,Weather View 32 v70,2013-12-21 18:25:00,
2013-12-21 10:30:00,50.6,34.1,30.06,ESE,113,0.0,5.0,53,0.00,,,0.00,Weather View 32 v70,2013-12-21 18:30:00,
2013-12-21 10:40:00,51.4,33.8,30.06,ESE,113,0.0,5.0,51,0.00,,,0.00,Weather View 32 v70,2013-12-21 18:40:00,
2013-12-21 10:45:00,51.7,34.1,30.06,ESE,115,2.0,5.0,51,0.00,,,0.00,Weather View 32 v70,2013-12-21 18:45:00,
2013-12-21 10:50:00,52.0,33.4,30.06,ESE,115,1.0,5.0,49,0.00,,,0.00,Weather View 32 v70,2013-12-21 18:50:00,
2013-12-21 10:55:00,52.2,33.6,30.06,ESE,115,4.0,5.0,49,0.00,,,0.00,Weather View 32 v70,2013-12-21 18:55:00,
2013-12-21 11:00:00,52.6,33.4,30.06,ESE,115,0.0,5.0,48,0.00,,,0.00,Weather View 32 v70,2013-12-21 19:00:00,
2013-12-21 11:05:00,53.1,33.4,30.06,ESE,115,1.0,5.0,47,0.00,,,0.00,Weather View 32 v70,2013-12-21 19:05:00,
2013-12-21 11:10:00,53.4,33.1,30.05,ESE,115,0.0,5.0,46,0.00,,,0.00,Weather View 32 v70,2013-12-21 19:10:00,
2013-12-21 11:15:00,53.7,33.4,30.05,ESE,115,0.0,5.0,46,0.00,,,0.00,Weather View 32 v70,2013-12-21 19:15:00,
2013-12-21 11:20:00,53.9,32.4,30.05,ESE,115,0.0,5.0,44,0.00,,,0.00,Weather View 32 v70,2013-12-21 19:20:00,
2013-12-21 11:25:00,54.2,32.7,30.05,ESE,115,0.0,5.0,44,0.00,,,0.00,Weather View 32 v70,2013-12-21 19:25:00,
2013-12-21 11:35:00,55.2,32.5,30.05,ESE,115,1.0,5.0,42,0.00,,,0.00,Weather View 32 v70,2013-12-21 19:35:00,
2013-12-21 11:40:00,55.4,32.0,30.04,ESE,120,0.0,5.0,41,0.00,,,0.00,Weather View 32 v70,2013-12-21 19:40:00,
2013-12-21 11:45:00,55.6,32.2,30.04,West,265,3.0,5.0,41,0.00,,,0.00,Weather View 32 v70,2013-12-21 19:45:00,
2013-12-21 11:50:00,55.7,33.5,30.04,West,261,1.0,5.0,43,0.00,,,0.00,Weather View 32 v70,2013-12-21 19:50:00,
2013-12-21 11:55:00,55.8,33.6,30.03,West,277,7.0,7.0,43,0.00,,,0.00,Weather View 32 v70,2013-12-21 19:55:00,
2013-12-21 12:00:00,55.9,33.1,30.03,West,271,0.0,7.0,42,0.00,,,0.00,Weather View 32 v70,2013-12-21 20:00:00,
2013-12-21 12:05:00,56.0,33.2,30.03,West,271,2.0,7.0,42,0.00,,,0.00,Weather View 32 v70,2013-12-21 20:05:00,
2013-12-21 12:15:00,56.1,33.3,30.03,WSW,252,3.0,7.0,42,0.00,,,0.00,Weather View 32 v70,2013-12-21 20:15:00,
2013-12-21 12:20:00,56.0,33.2,30.02,WSW,254,2.0,7.0,42,0.00,,,0.00,Weather View 32 v70,2013-12-21 20:20:00,
2013-12-21 12:25:00,56.0,32.6,30.02,WSW,245,3.0,8.0,41,0.00,,,0.00,Weather View 32 v70,2013-12-21 20:25:00,
2013-12-21 12:30:00,56.3,32.9,30.02,WSW,237,0.0,8.0,41,0.00,,,0.00,Weather View 32 v70,2013-12-21 20:30:00,
2013-12-21 12:35:00,56.6,33.1,30.02,North,0,5.0,8.0,41,0.00,,,0.00,Weather View 32 v70,2013-12-21 20:35:00,
2013-12-21 12:40:00,56.8,32.7,30.02,West,261,1.0,8.0,40,0.00,,,0.00,Weather View 32 v70,2013-12-21 20:40:00,
2013-12-21 12:50:00,57.3,33.1,30.01,WNW,292,1.0,8.0,40,0.00,,,0.00,Weather View 32 v70,2013-12-21 20:50:00,
2013-12-21 13:00:00,57.8,33.0,30.01,West,278,5.0,8.0,39,0.00,,,0.00,Weather View 32 v70,2013-12-21 21:00:00,
2013-12-21 13:05:00,57.8,32.3,30.01,West,274,5.0,8.0,38,0.00,,,0.00,Weather View 32 v70,2013-12-21 21:05:00,
2013-12-21 13:15:00,57.8,32.3,30.01,West,274,5.0,8.0,38,0.00,,,0.00,Weather View 32 v70,2013-12-21 21:15:00,
2013-12-21 13:20:00,57.9,32.4,30.01,West,273,1.0,8.0,38,0.00,,,0.00,Weather View 32 v70,2013-12-21 21:20:00,
2013-12-21 13:30:00,58.4,32.8,30.00,West,274,4.0,8.0,38,0.00,,,0.00,Weather View 32 v70,2013-12-21 21:30:00,
2013-12-21 13:40:00,58.5,32.3,30.00,West,274,2.0,8.0,37,0.00,,,0.00,Weather View 32 v70,2013-12-21 21:40:00,
2013-12-21 13:45:00,58.6,32.4,30.00,West,274,0.0,8.0,37,0.00,,,0.00,Weather View 32 v70,2013-12-21 21:45:00,
2013-12-21 13:50:00,58.6,32.4,30.00,West,272,7.0,8.0,37,0.00,,,0.00,Weather View 32 v70,2013-12-21 21:50:00,
2013-12-21 13:55:00,58.7,32.4,30.00,West,266,3.0,8.0,37,0.00,,,0.00,Weather View 32 v70,2013-12-21 21:55:00,
2013-12-21 14:00:00,58.9,32.6,30.00,West,266,0.0,8.0,37,0.00,,,0.00,Weather View 32 v70,2013-12-21 22:00:00,
2013-12-21 14:05:00,59.1,33.5,29.99,West,271,0.0,8.0,38,0.00,,,0.00,Weather View 32 v70,2013-12-21 22:05:00,
2013-12-21 14:10:00,59.3,33.0,30.00,WNW,283,0.0,8.0,37,0.00,,,0.00,Weather View 32 v70,2013-12-21 22:10:00,
2013-12-21 14:15:00,59.5,33.2,29.99,WNW,284,2.0,8.0,37,0.00,,,0.00,Weather View 32 v70,2013-12-21 22:15:00,
2013-12-21 14:20:00,59.5,33.2,29.99,NW,308,4.0,8.0,37,0.00,,,0.00,Weather View 32 v70,2013-12-21 22:20:00,
2013-12-21 14:25:00,59.6,33.2,29.99,NW,305,5.0,8.0,37,0.00,,,0.00,Weather View 32 v70,2013-12-21 22:25:00,
2013-12-21 14:35:00,59.6,33.2,29.99,NW,304,4.0,8.0,37,0.00,,,0.00,Weather View 32 v70,2013-12-21 22:35:00,
2013-12-21 14:40:00,59.7,33.3,29.99,NW,304,1.0,8.0,37,0.00,,,0.00,Weather View 32 v70,2013-12-21 22:40:00,
2013-12-21 14:45:00,59.9,33.5,29.99,NW,304,4.0,8.0,37,0.00,,,0.00,Weather View 32 v70,2013-12-21 22:45:00,
2013-12-21 14:50:00,60.1,33.0,29.99,NW,305,4.0,8.0,36,0.00,,,0.00,Weather View 32 v70,2013-12-21 22:50:00,
2013-12-21 15:00:00,60.2,33.1,29.99,NW,305,5.0,8.0,36,0.00,,,0.00,Weather View 32 v70,2013-12-21 23:00:00,
2013-12-21 15:05:00,60.3,33.2,29.98,NW,305,1.0,8.0,36,0.00,,,0.00,Weather View 32 v70,2013-12-21 23:05:00,
2013-12-21 15:10:00,60.3,33.2,29.98,NW,305,0.0,7.0,36,0.00,,,0.00,Weather View 32 v70,2013-12-21 23:10:00,
2013-12-21 15:15:00,60.5,33.4,29.98,NNW,333,4.0,7.0,36,0.00,,,0.00,Weather View 32 v70,2013-12-21 23:15:00,
2013-12-21 15:20:00,60.5,33.4,29.98,NNW,333,0.0,7.0,36,0.00,,,0.00,Weather View 32 v70,2013-12-21 23:20:00,
2013-12-21 15:25:00,60.3,33.2,29.98,NNW,345,0.0,7.0,36,0.00,,,0.00,Weather View 32 v70,2013-12-21 23:25:00,
2013-12-21 15:30:00,60.3,33.2,29.98,NNW,345,2.0,7.0,36,0.00,,,0.00,Weather View 32 v70,2013-12-21 23:30:00,
2013-12-21 15:35:00,60.5,33.4,29.98,NNW,340,1.0,7.0,36,0.00,,,0.00,Weather View 32 v70,2013-12-21 23:35:00,
2013-12-21 15:40:00,60.5,33.4,29.98,NNW,339,5.0,7.0,36,0.00,,,0.00,Weather View 32 v70,2013-12-21 23:40:00,
2013-12-21 15:45:00,60.6,33.4,29.99,NNW,338,5.0,7.0,36,0.00,,,0.00,Weather View 32 v70,2013-12-21 23:45:00,
2013-12-21 15:54:00,60.6,33.4,29.98,NNW,333,5.0,7.0,36,0.00,,,0.00,Weather View 32 v70,2013-12-21 23:54:00,
2013-12-21 16:00:00,60.5,33.4,29.99,NW,316,4.0,7.0,36,0.00,,,0.00,Weather View 32 v70,2013-12-22 00:00:00,
2013-12-21 16:05:00,60.4,33.3,29.99,NW,316,0.0,7.0,36,0.00,,,0.00,Weather View 32 v70,2013-12-22 00:05:00,
2013-12-21 16:10:00,60.2,33.1,29.99,NW,316,0.0,7.0,36,0.00,,,0.00,Weather View 32 v70,2013-12-22 00:10:00,
2013-12-21 16:15:00,60.2,33.1,29.99,NW,316,0.0,7.0,36,0.00,,,0.00,Weather View 32 v70,2013-12-22 00:15:00,
2013-12-21 16:20:00,60.0,32.9,29.99,West,269,0.0,7.0,36,0.00,,,0.00,Weather View 32 v70,2013-12-22 00:20:00,
2013-12-21 16:25:00,60.0,32.9,29.99,West,264,0.0,7.0,36,0.00,,,0.00,Weather View 32 v70,2013-12-22 00:25:00,
2013-12-21 16:30:00,59.9,32.8,29.99,WSW,240,0.0,7.0,36,0.00,,,0.00,Weather View 32 v70,2013-12-22 00:30:00,
2013-12-21 16:35:00,59.7,33.3,29.99,WSW,240,0.0,7.0,37,0.00,,,0.00,Weather View 32 v70,2013-12-22 00:35:00,
2013-12-21 16:40:00,59.3,33.0,29.99,SW,234,0.0,7.0,37,0.00,,,0.00,Weather View 32 v70,2013-12-22 00:40:00,
2013-12-21 16:45:00,58.9,32.6,29.99,SW,234,0.0,7.0,37,0.00,,,0.00,Weather View 32 v70,2013-12-22 00:45:00,
2013-12-21 16:50:00,58.5,32.9,29.99,SW,234,0.0,7.0,38,0.00,,,0.00,Weather View 32 v70,2013-12-22 00:50:00,
2013-12-21 16:55:00,58.0,33.1,29.99,SW,234,1.0,7.0,39,0.00,,,0.00,Weather View 32 v70,2013-12-22 00:55:00,
2013-12-21 17:00:00,57.6,32.8,29.99,SW,236,0.0,7.0,39,0.00,,,0.00,Weather View 32 v70,2013-12-22 01:00:00,
2013-12-21 17:10:00,57.1,33.0,29.99,SW,236,0.0,5.0,40,0.00,,,0.00,Weather View 32 v70,2013-12-22 01:10:00,
2013-12-21 17:15:00,56.8,33.3,29.99,SW,236,0.0,5.0,41,0.00,,,0.00,Weather View 32 v70,2013-12-22 01:15:00,
2013-12-21 17:25:00,56.1,33.3,30.00,SW,236,0.0,3.0,42,0.00,,,0.00,Weather View 32 v70,2013-12-22 01:25:00,
2013-12-21 17:30:00,55.7,33.5,29.99,SW,236,0.0,3.0,43,0.00,,,0.00,Weather View 32 v70,2013-12-22 01:30:00,
2013-12-21 17:40:00,54.7,33.2,30.00,SW,236,0.0,3.0,44,0.00,,,0.00,Weather View 32 v70,2013-12-22 01:40:00,
2013-12-21 17:45:00,54.2,33.3,30.00,SW,236,0.0,3.0,45,0.00,,,0.00,Weather View 32 v70,2013-12-22 01:45:00,
2013-12-21 17:50:00,53.8,32.9,30.00,SW,236,0.0,3.0,45,0.00,,,0.00,Weather View 32 v70,2013-12-22 01:50:00,
2013-12-21 17:55:00,53.4,33.1,30.00,SW,236,0.0,3.0,46,0.00,,,0.00,Weather View 32 v70,2013-12-22 01:55:00,
2013-12-21 18:05:00,52.7,33.0,30.00,SW,236,1.0,2.0,47,0.00,,,0.00,Weather View 32 v70,2013-12-22 02:05:00,
2013-12-21 18:10:00,52.3,33.2,30.01,SW,236,0.0,2.0,48,0.00,,,0.00,Weather View 32 v70,2013-12-22 02:10:00,
2013-12-21 18:15:00,52.0,33.4,30.01,SW,236,0.0,2.0,49,0.00,,,0.00,Weather View 32 v70,2013-12-22 02:15:00,
2013-12-21 18:20:00,51.6,33.0,30.01,SW,236,0.0,2.0,49,0.00,,,0.00,Weather View 32 v70,2013-12-22 02:20:00,
2013-12-21 18:25:00,51.2,33.2,30.01,SW,236,0.0,2.0,50,0.00,,,0.00,Weather View 32 v70,2013-12-22 02:25:00,
2013-12-21 18:30:00,50.8,33.3,30.01,SW,236,0.0,2.0,51,0.00,,,0.00,Weather View 32 v70,2013-12-22 02:30:00,
2013-12-21 18:40:00,50.0,33.5,30.02,SW,236,0.0,2.0,53,0.00,,,0.00,Weather View 32 v70,2013-12-22 02:40:00,
2013-12-21 18:45:00,49.5,33.5,30.02,SW,236,0.0,2.0,54,0.00,,,0.00,Weather View 32 v70,2013-12-22 02:45:00,
2013-12-21 18:50:00,49.2,33.7,30.02,SW,236,0.0,2.0,55,0.00,,,0.00,Weather View 32 v70,2013-12-22 02:50:00,
2013-12-21 18:55:00,48.8,33.8,30.02,SW,236,0.0,2.0,56,0.00,,,0.00,Weather View 32 v70,2013-12-22 02:55:00,
2013-12-21 19:00:00,48.5,34.4,30.02,SW,236,0.0,2.0,58,0.00,,,0.00,Weather View 32 v70,2013-12-22 03:00:00,
2013-12-21 19:05:00,48.2,34.5,30.02,SW,236,0.0,2.0,59,0.00,,,0.00,Weather View 32 v70,2013-12-22 03:05:00,
2013-12-21 19:10:00,48.0,34.3,30.03,SW,236,0.0,1.0,59,0.00,,,0.00,Weather View 32 v70,2013-12-22 03:10:00,
2013-12-21 19:15:00,47.8,34.6,30.03,SW,236,0.0,1.0,60,0.00,,,0.00,Weather View 32 v70,2013-12-22 03:15:00,
2013-12-21 19:20:00,47.7,34.9,30.04,SW,236,0.0,1.0,61,0.00,,,0.00,Weather View 32 v70,2013-12-22 03:20:00,
2013-12-21 19:25:00,47.5,35.1,30.04,SW,236,0.0,1.0,62,0.00,,,0.00,Weather View 32 v70,2013-12-22 03:25:00,
2013-12-21 19:30:00,47.3,34.9,30.04,SW,236,0.0,1.0,62,0.00,,,0.00,Weather View 32 v70,2013-12-22 03:30:00,
2013-12-21 19:40:00,46.7,34.8,30.04,SW,236,0.0,1.0,63,0.00,,,0.00,Weather View 32 v70,2013-12-22 03:40:00,
2013-12-21 19:45:00,46.4,34.9,30.04,SW,236,0.0,1.0,64,0.00,,,0.00,Weather View 32 v70,2013-12-22 03:45:00,
2013-12-21 19:50:00,46.2,34.7,30.04,SW,236,0.0,1.0,64,0.00,,,0.00,Weather View 32 v70,2013-12-22 03:50:00,
2013-12-21 19:56:00,46.1,34.6,30.04,SW,236,0.0,1.0,64,0.00,,,0.00,Weather View 32 v70,2013-12-22 03:56:00,
2013-12-21 20:05:00,46.1,34.6,30.04,SW,236,0.0,1.0,64,0.00,,,0.00,Weather View 32 v70,2013-12-22 04:05:00,
2013-12-21 20:10:00,46.0,34.5,30.04,SW,236,0.0,1.0,64,0.00,,,0.00,Weather View 32 v70,2013-12-22 04:10:00,
2013-12-21 20:15:00,45.9,35.2,30.04,SW,236,0.0,1.0,66,0.00,,,0.00,Weather View 32 v70,2013-12-22 04:15:00,
2013-12-21 20:25:00,45.8,35.5,30.05,SW,236,2.0,2.0,67,0.00,,,0.00,Weather View 32 v70,2013-12-22 04:25:00,
2013-12-21 20:30:00,45.8,35.8,30.05,SW,236,0.0,2.0,68,0.00,,,0.00,Weather View 32 v70,2013-12-22 04:30:00,
2013-12-21 20:35:00,45.7,35.7,30.05,SW,236,0.0,2.0,68,0.00,,,0.00,Weather View 32 v70,2013-12-22 04:35:00,
2013-12-21 20:40:00,45.6,36.0,30.05,SW,236,0.0,2.0,69,0.00,,,0.00,Weather View 32 v70,2013-12-22 04:40:00,
2013-12-21 20:45:00,45.5,35.9,30.05,SW,236,0.0,2.0,69,0.00,,,0.00,Weather View 32 v70,2013-12-22 04:45:00,
2013-12-21 20:50:00,45.4,35.8,30.05,SW,236,0.0,2.0,69,0.00,,,0.00,Weather View 32 v70,2013-12-22 04:50:00,
2013-12-21 20:55:00,45.4,35.8,30.05,SW,236,0.0,2.0,69,0.00,,,0.00,Weather View 32 v70,2013-12-22 04:55:00,
2013-12-21 21:00:00,45.3,36.1,30.06,SW,235,1.0,3.0,70,0.00,,,0.00,Weather View 32 v70,2013-12-22 05:00:00,
2013-12-21 21:05:00,45.3,36.1,30.06,SW,235,0.0,3.0,70,0.00,,,0.00,Weather View 32 v70,2013-12-22 05:05:00,
2013-12-21 21:10:00,45.2,36.0,30.06,SW,235,0.0,3.0,70,0.00,,,0.00,Weather View 32 v70,2013-12-22 05:10:00,
2013-12-21 21:15:00,45.0,35.8,30.06,SW,235,0.0,3.0,70,0.00,,,0.00,Weather View 32 v70,2013-12-22 05:15:00,
2013-12-21 21:20:00,44.7,35.5,30.06,SW,235,0.0,3.0,70,0.00,,,0.00,Weather View 32 v70,2013-12-22 05:20:00,
2013-12-21 21:25:00,44.6,35.8,30.06,SW,235,0.0,3.0,71,0.00,,,0.00,Weather View 32 v70,2013-12-22 05:25:00,
2013-12-21 21:30:00,44.3,35.5,30.06,SW,235,0.0,3.0,71,0.00,,,0.00,Weather View 32 v70,2013-12-22 05:30:00,
2013-12-21 21:35:00,44.2,35.7,30.07,SW,235,0.0,3.0,72,0.00,,,0.00,Weather View 32 v70,2013-12-22 05:35:00,
2013-12-21 21:40:00,44.0,35.5,30.07,SW,235,0.0,3.0,72,0.00,,,0.00,Weather View 32 v70,2013-12-22 05:40:00,
2013-12-21 21:45:00,43.9,35.8,30.07,SW,235,0.0,3.0,73,0.00,,,0.00,Weather View 32 v70,2013-12-22 05:45:00,
2013-12-21 21:55:00,43.7,35.6,30.07,SW,235,0.0,3.0,73,0.00,,,0.00,Weather View 32 v70,2013-12-22 05:55:00,
2013-12-21 22:00:00,43.5,35.4,30.06,SW,235,0.0,3.0,73,0.00,,,0.00,Weather View 32 v70,2013-12-22 06:00:00,
2013-12-21 22:05:00,43.3,35.6,30.07,SW,235,0.0,3.0,74,0.00,,,0.00,Weather View 32 v70,2013-12-22 06:05:00,
2013-12-21 22:10:00,43.3,35.9,30.08,SW,235,0.0,1.0,75,0.00,,,0.00,Weather View 32 v70,2013-12-22 06:10:00,
2013-12-21 22:20:00,43.4,35.7,30.08,SW,227,0.0,3.0,74,0.00,,,0.00,Weather View 32 v70,2013-12-22 06:20:00,
2013-12-21 22:25:00,43.6,35.5,30.08,SW,227,0.0,3.0,73,0.00,,,0.00,Weather View 32 v70,2013-12-22 06:25:00,
2013-12-21 22:30:00,43.5,35.4,30.07,SW,227,0.0,3.0,73,0.00,,,0.00,Weather View 32 v70,2013-12-22 06:30:00,
2013-12-21 22:40:00,43.7,35.6,30.07,SW,227,0.0,3.0,73,0.00,,,0.00,Weather View 32 v70,2013-12-22 06:40:00,
2013-12-21 22:45:00,43.7,35.3,30.08,SW,227,0.0,3.0,72,0.00,,,0.00,Weather View 32 v70,2013-12-22 06:45:00,
2013-12-21 22:50:00,43.6,35.5,30.08,SW,227,0.0,3.0,73,0.00,,,0.00,Weather View 32 v70,2013-12-22 06:50:00,
2013-12-21 22:55:00,43.5,35.4,30.08,SW,227,0.0,3.0,73,0.00,,,0.00,Weather View 32 v70,2013-12-22 06:55:00,
2013-12-21 23:00:00,43.5,35.1,30.08,SW,227,0.0,3.0,72,0.00,,,0.00,Weather View 32 v70,2013-12-22 07:00:00,
2013-12-21 23:05:00,43.4,35.0,30.09,SW,227,2.0,4.0,72,0.00,,,0.00,Weather View 32 v70,2013-12-22 07:05:00,
2013-12-21 23:10:00,43.0,34.6,30.09,SW,227,3.0,4.0,72,0.00,,,0.00,Weather View 32 v70,2013-12-22 07:10:00,
2013-12-21 23:15:00,42.9,34.5,30.09,SW,227,0.0,4.0,72,0.00,,,0.00,Weather View 32 v70,2013-12-22 07:15:00,
2013-12-21 23:25:00,42.7,34.3,30.09,SW,227,0.0,4.0,72,0.00,,,0.00,Weather View 32 v70,2013-12-22 07:25:00,
2013-12-21 23:30:00,42.5,34.4,30.09,SW,227,0.0,4.0,73,0.00,,,0.00,Weather View 32 v70,2013-12-22 07:30:00,
2013-12-21 23:35:00,42.2,34.5,30.09,SW,227,0.0,4.0,74,0.00,,,0.00,Weather View 32 v70,2013-12-22 07:35:00,
2013-12-21 23:40:00,42.0,34.6,30.09,SW,227,0.0,4.0,75,0.00,,,0.00,Weather View 32 v70,2013-12-22 07:40:00,
2013-12-21 23:50:00,41.4,34.1,30.09,SW,227,0.0,4.0,75,0.00,,,0.00,Weather View 32 v70,2013-12-22 07:50:00,
2013-12-21 23:55:00,41.2,34.2,30.09,SW,227,0.0,4.0,76,0.00,,,0.00,Weather View 32 v70,2013-12-22 07:55:00,